User: anonymous   Login
Location: South Tamworth Observatory
(43.8246°N, 71.3026°W)
Time: 23:39:44
(UTC-05:00)
Language:

Cosmos 1844 - Orbit

View from above orbital plane
View from above orbital plane
View from above satellite
View from above satellite

Ground track
Ground track

The orbit data is extracted from the following two-line orbital elements,

1 17973U 87041A   17018.09231211 -.00000233  00000-0 -96404-4 0  9990
2 17973  70.8971 229.8993 0031710 346.2762  13.7494 14.14047601531921
Epoch (UTC): 18 January 2017 02:12:55
Eccentricity: 0.0031710
inclination: 70.8971°
perigee height: 822 km
apogee height: 868 km
right ascension of ascending node: 229.8993°
argument of perigee: 346.2762°
revolutions per day: 14.14047601
mean anomaly at epoch: 13.7494°
orbit number at epoch: 53192

The dashed part of the orbit path shows where the satellite is in the earth's shadow,  

DLR